�N����,����,�~����,�C��,���x,�C��,����,���ϕ���,�ő�u�ԕ���,�ő厞����,���˗�,�I�_���x,�n�����x,�ő啗���N��,DTYPE
"16/07/27","00:10",0.0,23.5,95.3,1003.8,298.8,0.5,0.9,316.9,0.00,22.7,25.0,"00:02:48",1
"16/07/27","00:20",0.0,23.5,95.3,1004.1,294.7,0.5,0.8,312.4,0.00,22.7,24.8,"00:12:08",1
"16/07/27","00:30",0.0,23.5,95.3,1003.8,292.1,0.3,0.8,314.1,0.00,22.7,24.9,"00:29:12",1
"16/07/27","00:40",0.2,23.5,95.5,1004.1,303.5,0.5,1.0,318.4,0.00,22.8,24.9,"00:34:00",1
"16/07/27","00:50",0.0,23.6,95.5,1003.6,257.4,0.1,0.3,246.1,0.00,22.9,24.8,"00:40:08",1
"16/07/27","01:00",0.0,23.6,95.4,1003.6,272.2,0.2,0.6,323.4,0.00,22.9,25.0,"00:57:36",1
"16/07/27","01:10",0.0,23.6,95.6,1003.8,275.5,0.1,0.4,298.7,0.00,22.9,25.0,"01:05:36",1
"16/07/27","01:20",0.0,23.6,95.5,1003.8,289.2,0.2,0.9,328.1,0.00,22.9,24.8,"01:17:12",1
"16/07/27","01:30",0.0,23.5,95.5,1003.6,278.5,0.1,0.4,297.1,0.00,22.8,24.8,"01:23:44",1
"16/07/27","01:40",0.0,23.6,95.6,1003.4,277.9,0.2,1.0,325.6,0.00,22.9,24.9,"01:32:40",1
"16/07/27","01:50",0.0,23.6,95.6,1003.8,273.5,0.1,0.5,315.5,0.00,22.9,25.0,"01:49:36",1
"16/07/27","02:00",0.0,23.6,95.6,1003.6,289.4,0.1,0.4,317.5,0.00,22.9,24.7,"01:50:40",1
"16/07/27","02:10",0.0,23.6,95.7,1003.6,278.0,0.0,0.3,278.5,0.00,22.9,24.8,"02:00:16",1
"16/07/27","02:20",0.0,23.6,95.6,1003.8,269.9,0.1,0.4,323.4,0.00,22.9,24.9,"02:10:02",1
"16/07/27","02:30",0.0,23.6,95.7,1003.6,304.3,0.2,0.5,313.7,0.00,22.9,24.9,"02:25:28",1
"16/07/27","02:40",0.0,23.6,95.7,1003.6,315.2,0.5,0.8,348.1,0.00,22.9,24.8,"02:38:56",1
"16/07/27","02:50",0.0,23.6,95.7,1003.6,314.7,0.3,0.9,339.7,0.00,22.9,24.8,"02:40:08",1
"16/07/27","03:00",0.0,23.6,95.7,1003.4,342.1,0.5,0.9,354.2,0.00,22.9,24.8,"02:59:04",1
"16/07/27","03:10",0.0,23.6,95.8,1003.6,341.7,0.5,0.9,346.0,0.00,22.9,24.8,"03:05:28",1
"16/07/27","03:20",0.0,23.6,95.8,1003.6,302.3,0.2,0.9,348.3,0.00,22.9,24.9,"03:11:04",1
"16/07/27","03:30",0.0,23.6,95.8,1003.6,335.6,0.3,0.8,347.8,0.00,22.9,24.7,"03:23:52",1
"16/07/27","03:40",0.0,23.5,95.8,1003.6,341.8,0.6,1.1,345.0,0.00,22.8,24.8,"03:39:52",1
"16/07/27","03:50",0.0,23.5,95.8,1003.6,328.4,0.6,1.2,343.2,0.00,22.8,24.9,"03:45:28",1
"16/07/27","04:00",0.0,23.5,95.9,1003.4,314.7,0.3,1.1,359.2,0.00,22.8,24.7,"03:55:20",1
"16/07/27","04:10",0.0,23.5,95.9,1003.4,330.6,0.5,1.2,348.8,0.00,22.8,24.7,"04:02:48",1
"16/07/27","04:20",0.0,23.6,95.9,1003.6,311.1,0.3,1.0,339.2,0.00,22.9,24.9,"04:11:36",1
"16/07/27","04:30",0.0,23.6,95.9,1003.8,276.1,0.2,0.6,322.1,0.00,22.9,24.9,"04:20:24",1
"16/07/27","04:40",0.0,23.5,95.9,1003.6,286.1,0.1,0.5,311.9,0.00,22.8,24.9,"04:39:52",1
"16/07/27","04:50",0.0,23.5,95.9,1003.6,327.5,0.3,0.6,354.4,0.00,22.8,24.7,"04:41:04",1
"16/07/27","05:00",0.0,23.5,96.0,1003.8,296.5,0.3,0.6,323.4,0.00,22.9,24.6,"04:50:40",1
"16/07/27","05:10",0.0,23.5,96.0,1003.8,310.3,0.3,1.0,330.7,0.00,22.9,24.6,"05:07:04",1
"16/07/27","05:20",0.0,23.6,96.0,1003.6,313.9,0.5,1.2,345.5,0.00,23.0,24.8,"05:12:56",1
"16/07/27","05:30",0.0,23.5,96.0,1003.8,260.5,0.0,0.4,259.4,0.00,22.9,24.6,"05:20:48",1
"16/07/27","05:40",0.0,23.5,96.0,1003.8,284.6,0.1,0.4,299.9,0.00,22.9,24.8,"05:34:00",1
"16/07/27","05:50",0.0,23.5,96.0,1003.8,286.1,0.2,0.6,328.0,0.00,22.9,24.7,"05:41:52",1
"16/07/27","06:00",0.0,23.6,96.0,1003.8,285.1,0.1,0.5,322.2,0.00,23.0,24.8,"05:50:32",1
"16/07/27","06:10",0.0,23.5,95.9,1004.1,307.9,0.2,0.9,335.5,0.00,22.8,24.7,"06:02:16",1
"16/07/27","06:20",0.0,23.6,96.0,1004.3,266.8,0.1,0.3,239.1,0.00,23.0,24.8,"06:12:40",1
"16/07/27","06:30",0.0,23.6,96.0,1004.3,272.1,0.0,0.3,277.4,0.00,23.0,24.5,"06:20:56",1
"16/07/27","06:40",0.0,23.7,96.0,1004.3,288.8,0.0,0.3,288.8,0.00,23.1,24.7,"06:30:24",1
"16/07/27","06:50",0.0,23.7,95.9,1004.3,321.4,0.2,0.9,351.2,0.00,23.0,24.7,"06:45:36",1
"16/07/27","07:00",0.0,23.7,95.9,1004.5,316.6,0.2,0.6,329.2,0.00,23.0,24.8,"06:51:44",1
"16/07/27","07:10",0.0,23.8,95.9,1004.3,187.0,0.0,0.4,160.0,0.00,23.1,24.7,"07:03:36",1
"16/07/27","07:20",0.0,23.9,95.8,1004.1,298.2,0.1,0.5,304.4,0.00,23.2,24.5,"07:18:32",1
"16/07/27","07:30",0.0,23.9,95.6,1004.5,318.6,0.1,0.4,337.7,0.00,23.2,24.6,"07:20:48",1
"16/07/27","07:40",0.0,23.9,95.6,1004.5,335.4,0.3,1.0,340.6,0.00,23.2,24.6,"07:34:24",1
"16/07/27","07:50",0.0,24.1,95.5,1004.5,314.7,0.1,0.5,359.1,0.01,23.4,24.9,"07:40:48",1
"16/07/27","08:00",0.0,24.2,95.3,1004.3,280.9,0.0,0.3,329.1,0.02,23.4,24.9,"07:50:02",1
"16/07/27","08:10",0.0,24.3,95.0,1004.5,335.9,0.2,1.1,353.3,0.03,23.5,24.8,"08:05:36",1
"16/07/27","08:20",0.0,24.4,94.5,1004.3,7.2,0.3,0.9,18.0,0.03,23.5,24.7,"08:17:20",1
"16/07/27","08:30",0.0,24.6,93.9,1004.1,3.9,0.5,1.1,352.7,0.05,23.6,24.7,"08:25:52",1
"16/07/27","08:40",0.0,24.9,93.1,1004.5,337.8,0.3,0.9,356.1,0.07,23.7,24.9,"08:30:16",1
"16/07/27","08:50",0.0,25.1,90.6,1004.1,1.9,0.2,0.8,341.8,0.09,23.5,25.1,"08:41:44",1
"16/07/27","09:00",0.0,25.5,89.2,1004.3,340.4,0.3,1.2,350.7,0.12,23.6,25.1,"08:51:36",1
"16/07/27","09:10",0.0,25.9,87.6,1004.3,359.8,0.2,0.8,349.5,0.13,23.7,25.1,"09:01:36",1
"16/07/27","09:20",0.0,26.6,83.8,1004.1,354.6,0.3,0.9,334.1,0.23,23.7,25.2,"09:15:20",1
"16/07/27","09:30",0.0,27.1,83.7,1004.5,164.3,0.2,1.0,162.3,0.21,24.1,25.4,"09:21:20",1
"16/07/27","09:40",0.0,26.9,83.4,1004.1,22.4,0.7,1.4,348.3,0.22,23.9,25.2,"09:35:44",1
"16/07/27","09:50",0.0,27.3,81.1,1003.6,95.6,0.3,1.0,164.1,0.28,23.8,25.5,"09:47:20",1
"16/07/27","10:00",0.0,27.4,81.1,1003.1,60.8,0.6,1.7,21.5,0.30,23.9,25.8,"09:57:44",1
"16/07/27","10:10",0.0,27.8,80.3,1003.6,182.6,0.7,1.4,177.6,0.32,24.1,25.8,"10:04:40",1
"16/07/27","10:20",0.0,28.2,77.6,1003.6,162.3,0.8,2.5,215.6,0.36,24.0,26.3,"10:13:12",1
"16/07/27","10:30",0.0,28.7,77.6,1003.8,36.7,0.5,1.1,359.3,0.34,24.4,26.3,"10:20:08",1
"16/07/27","10:40",0.0,28.8,75.5,1004.1,82.8,0.7,1.9,10.5,0.39,24.1,26.4,"10:36:24",1
"16/07/27","10:50",0.0,28.6,76.6,1004.1,79.6,0.2,1.3,351.1,0.18,24.1,26.6,"10:43:04",1
"16/07/27","11:00",0.0,28.6,78.3,1004.1,9.2,0.5,1.8,345.4,0.18,24.5,26.8,"10:52:56",1
"16/07/27","11:10",0.0,28.8,76.8,1003.8,55.6,0.7,1.7,27.9,0.26,24.4,26.7,"11:07:28",1
"16/07/27","11:20",0.0,29.2,76.8,1003.6,70.3,0.5,1.6,34.8,0.30,24.7,27.2,"11:16:40",1
"16/07/27","11:30",0.0,29.7,74.1,1003.6,76.8,0.6,1.6,43.3,0.31,24.6,27.2,"11:20:24",1
"16/07/27","11:40",0.0,29.3,73.7,1003.6,64.1,0.8,1.8,19.4,0.26,24.2,27.3,"11:34:56",1
"16/07/27","11:50",0.0,29.9,75.5,1003.8,44.5,0.3,1.1,125.0,0.30,25.1,27.3,"11:41:36",1
"16/07/27","12:00",0.0,30.0,70.4,1003.8,355.4,0.1,0.5,273.6,0.27,24.1,27.3,"11:57:12",1
"16/07/27","12:10",0.0,30.0,72.3,1003.6,325.4,0.2,1.0,121.3,0.24,24.5,27.7,"12:00:24",1
"16/07/27","12:20",0.0,30.2,70.6,1003.8,68.2,0.3,1.2,85.6,0.26,24.3,27.8,"12:19:20",1
"16/07/27","12:30",0.0,30.6,69.4,1003.6,87.2,0.8,2.0,18.1,0.41,24.4,27.7,"12:27:20",1
"16/07/27","12:40",0.0,30.9,70.0,1003.8,130.8,0.7,2.0,123.4,0.33,24.8,27.8,"12:38:40",1
"16/07/27","12:50",0.0,31.7,65.0,1003.4,165.5,1.1,3.2,200.0,0.53,24.3,28.1,"12:45:20",1
"16/07/27","13:00",0.0,32.0,67.2,1003.8,177.0,1.0,3.1,224.1,0.49,25.2,28.3,"12:57:44",1
"16/07/27","13:10",0.0,32.6,62.5,1004.3,88.3,0.7,2.2,136.6,0.54,24.5,28.4,"13:00:32",1
"16/07/27","13:20",0.0,31.5,64.7,1004.3,182.6,1.2,3.6,193.2,0.34,24.1,28.5,"13:17:28",1
"16/07/27","13:30",0.0,32.4,64.3,1003.8,172.4,1.5,3.2,218.2,0.45,24.8,28.5,"13:21:20",1
"16/07/27","13:40",0.0,32.7,63.1,1004.1,135.5,0.7,2.4,190.2,0.44,24.8,28.7,"13:30:16",1
"16/07/27","13:50",0.0,32.2,61.1,1004.1,188.7,1.0,4.0,195.2,0.34,23.8,28.8,"13:46:48",1
"16/07/27","14:00",0.0,32.1,64.8,1003.6,206.4,1.3,4.5,223.3,0.34,24.7,28.7,"13:53:12",1
"16/07/27","14:10",0.0,33.0,63.8,1003.6,159.2,0.8,2.0,190.8,0.45,25.3,28.8,"14:00:08",1
"16/07/27","14:20",0.0,31.7,63.1,1003.4,213.1,1.2,2.9,231.5,0.26,23.9,28.7,"14:13:52",1
"16/07/27","14:30",0.0,33.5,60.5,1003.1,179.9,0.6,1.6,223.7,0.46,24.8,29.1,"14:24:00",1
"16/07/27","14:40",0.0,32.8,62.2,1003.6,163.7,1.0,2.6,185.7,0.27,24.7,29.0,"14:31:36",1
"16/07/27","14:50",0.0,31.7,64.6,1003.1,221.7,1.2,2.8,226.3,0.19,24.2,29.2,"14:43:28",1
"16/07/27","15:00",0.0,33.2,62.5,1003.1,213.6,0.5,2.1,225.4,0.35,25.1,29.4,"14:50:16",1
"16/07/27","15:10",0.0,34.0,57.9,1002.9,18.6,0.6,1.6,354.6,0.39,24.6,29.3,"15:04:24",1
"16/07/27","15:20",0.0,33.1,60.2,1003.4,231.4,0.7,2.4,223.0,0.31,24.4,29.5,"15:12:48",1
"16/07/27","15:30",0.0,32.9,59.6,1003.1,216.0,0.3,1.3,233.4,0.26,24.0,29.3,"15:22:40",1
"16/07/27","15:40",0.0,32.8,60.1,1003.1,193.9,0.6,2.0,217.1,0.31,24.1,29.4,"15:36:24",1
"16/07/27","15:50",0.0,32.5,59.6,1002.6,233.1,0.7,3.1,219.8,0.23,23.7,29.6,"15:45:52",1
"16/07/27","16:00",0.0,33.0,60.0,1003.1,224.4,0.5,1.4,191.3,0.23,24.2,29.3,"15:50:56",1
"16/07/27","16:10",0.0,32.8,64.0,1002.6,220.5,0.5,2.5,182.8,0.22,25.1,29.6,"16:08:48",1
"16/07/27","16:20",0.0,32.9,59.4,1002.9,239.9,0.5,2.2,239.1,0.21,24.0,29.5,"16:19:52",1
"16/07/27","16:30",0.0,32.6,61.3,1002.4,211.8,0.7,1.7,228.0,0.16,24.2,29.4,"16:20:08",1
"16/07/27","16:40",0.0,32.3,61.1,1002.6,235.0,0.7,1.8,206.2,0.08,23.9,29.4,"16:31:28",1
"16/07/27","16:50",0.0,32.1,61.3,1001.9,220.8,1.2,2.5,208.8,0.11,23.8,29.4,"16:41:12",1
"16/07/27","17:00",0.0,31.9,62.5,1001.9,205.2,1.5,3.3,217.1,0.08,23.9,29.2,"16:59:04",1
"16/07/27","17:10",0.0,31.7,63.0,1001.7,195.0,1.6,3.2,224.3,0.06,23.8,29.2,"17:02:08",1
"16/07/27","17:20",0.0,31.4,64.9,1001.5,194.4,1.7,3.3,198.4,0.05,24.0,29.3,"17:13:28",1
"16/07/27","17:30",0.0,31.3,64.3,1001.2,213.0,1.6,3.2,221.4,0.04,23.8,29.2,"17:24:16",1
"16/07/27","17:40",0.0,31.0,67.1,1001.2,183.5,0.8,2.4,222.6,0.03,24.2,29.1,"17:31:20",1
"16/07/27","17:50",0.0,30.6,68.6,1001.2,217.9,0.8,2.4,222.5,0.01,24.2,28.9,"17:44:00",1
"16/07/27","18:00",0.0,30.2,70.2,1001.2,2.9,0.1,0.9,204.9,0.01,24.2,28.9,"17:50:32",1
"16/07/27","18:10",0.0,29.9,74.4,1001.0,19.6,0.6,1.7,10.5,0.01,24.9,28.7,"18:02:40",1
"16/07/27","18:20",0.0,29.5,75.4,1001.2,130.1,0.1,0.5,206.6,0.01,24.7,28.6,"18:11:12",1
"16/07/27","18:30",0.0,29.1,77.6,1001.0,325.2,0.2,1.4,353.0,0.00,24.8,28.6,"18:24:40",1
"16/07/27","18:40",0.0,28.8,79.8,1000.8,328.8,0.2,0.8,334.3,0.00,25.0,28.6,"18:35:12",1
"16/07/27","18:50",0.0,28.4,80.5,1001.0,252.7,0.2,1.0,222.3,0.00,24.8,28.5,"18:49:20",1
"16/07/27","19:00",0.0,28.1,81.5,1001.5,278.8,0.1,0.8,6.1,0.00,24.7,28.3,"18:53:20",1
"16/07/27","19:10",0.0,28.0,82.6,1001.5,329.8,0.3,1.4,347.1,0.00,24.8,28.4,"19:08:08",1
"16/07/27","19:20",0.0,27.6,83.2,1001.9,321.1,0.7,1.8,342.2,0.00,24.5,28.0,"19:10:24",1
"16/07/27","19:30",0.0,27.3,84.1,1002.4,287.6,0.3,0.6,316.4,0.00,24.4,28.2,"19:27:04",1
"16/07/27","19:40",0.0,27.0,84.7,1002.4,290.3,0.5,0.9,308.8,0.00,24.2,28.0,"19:33:20",1
"16/07/27","19:50",0.0,26.8,84.1,1002.6,312.1,0.5,1.1,348.6,0.00,23.9,28.0,"19:48:08",1
"16/07/27","20:00",0.0,26.7,84.1,1002.4,282.6,0.3,0.9,250.9,0.00,23.8,27.9,"19:58:32",1
"16/07/27","20:10",0.0,26.5,84.9,1003.1,287.7,0.5,0.9,339.4,0.00,23.8,27.8,"20:00:02",1
"16/07/27","20:20",0.0,26.3,86.3,1003.1,313.3,0.6,1.2,343.3,0.00,23.9,27.7,"20:10:24",1
"16/07/27","20:30",0.0,26.0,87.3,1003.1,311.6,0.5,1.0,290.8,0.00,23.8,27.7,"20:28:32",1
"16/07/27","20:40",0.0,25.8,88.1,1003.4,306.2,0.5,0.6,308.3,0.00,23.7,27.4,"20:33:52",1
"16/07/27","20:50",0.0,25.6,88.8,1003.1,309.8,0.3,0.9,329.6,0.00,23.7,27.6,"20:49:52",1
"16/07/27","21:00",0.0,25.6,89.0,1003.4,333.2,0.8,1.7,346.9,0.00,23.7,27.3,"20:51:20",1
"16/07/27","21:10",0.0,25.5,89.0,1003.6,338.3,0.8,1.4,343.2,0.00,23.6,27.2,"21:04:40",1
"16/07/27","21:20",0.0,25.3,88.2,1003.8,320.8,0.6,1.1,332.9,0.00,23.2,27.2,"21:11:04",1
"16/07/27","21:30",0.0,25.3,87.8,1003.6,336.8,0.6,1.2,355.7,0.00,23.2,27.0,"21:26:32",1
"16/07/27","21:40",0.0,25.1,87.9,1003.8,311.3,0.5,0.6,336.7,0.00,23.0,27.1,"21:31:36",1
"16/07/27","21:50",0.0,25.0,88.3,1004.1,316.4,0.6,1.1,330.4,0.00,23.0,27.0,"21:47:44",1
"16/07/27","22:00",0.0,25.0,88.7,1003.8,312.1,0.5,1.1,342.7,0.00,23.0,26.9,"21:53:12",1
"16/07/27","22:10",0.0,24.9,88.8,1003.8,336.0,0.7,1.4,353.1,0.00,23.0,27.0,"22:05:12",1
"16/07/27","22:20",0.0,24.9,88.4,1004.1,308.9,0.5,0.9,339.1,0.00,22.9,26.9,"22:11:44",1
"16/07/27","22:30",0.0,24.9,88.3,1004.3,307.8,0.3,1.0,359.9,0.00,22.9,26.7,"22:28:56",1
"16/07/27","22:40",0.0,24.9,88.0,1004.1,293.1,0.1,0.6,245.6,0.00,22.8,26.7,"22:30:40",1
"16/07/27","22:50",0.0,24.9,87.7,1004.3,299.1,0.3,0.6,290.0,0.00,22.8,26.8,"22:43:36",1
"16/07/27","23:00",0.0,24.8,88.1,1004.3,289.2,0.2,0.6,112.5,0.00,22.7,26.6,"22:53:28",1
"16/07/27","23:10",0.0,24.8,88.2,1004.3,303.4,0.3,0.9,334.2,0.00,22.8,26.3,"23:04:40",1
"16/07/27","23:20",0.0,24.8,88.2,1004.3,303.3,0.5,0.8,312.0,0.00,22.8,26.4,"23:11:20",1
"16/07/27","23:30",0.0,24.7,88.2,1004.5,268.0,0.5,0.9,269.4,0.00,22.7,26.3,"23:29:20",1
"16/07/27","23:40",0.0,24.6,88.4,1004.8,287.2,0.5,1.0,300.9,0.00,22.6,26.6,"23:35:36",1
"16/07/27","23:50",0.0,24.7,88.4,1004.8,300.0,0.5,0.9,329.5,0.00,22.7,26.5,"23:41:04",1
"16/07/27","24:00",0.0,24.7,88.5,1004.1,305.4,0.3,0.9,332.1,0.00,22.7,26.3,"23:59:04",1
